Regional Weather Roundup
Issued by NWS

Home | Current Version | Previous Version | Graphics & Text | Print | Product List | Glossary On
Versions: 1 2 3 4 5 6 7 8 9 10 11 12 13 14 15 16 17 18 19 20 21 22 23 24 25 26 27 28 29 30 31 32 33 34 35 36 37 38 39 40 41 42 43 44 45 46 47 48 49 50
000
ASUS43 KLOT 291500
RWRIL

ILLINOIS REGIONAL WEATHER ROUNDUP
NATIONAL WEATHER SERVICE CHICAGO/ROMEOVILLE IL
900 AM CST MON DEC 29 2014

NOTE: "FAIR" INDICATES FEW OR NO CLOUDS BELOW 12,000 FEET WITH NO
SIGNIFICANT WEATHER AND/OR OBSTRUCTIONS TO VISIBILITY.

* THESE STATIONS ARE NOT UNDER NWS QUALITY CONTROL. THEY ALSO MAY NOT
  REPORT WEATHER SUCH AS PRECIPITATION OR FOG.

ILZ001-002-007-009-015-016-024-291600-
NORTHWEST ILLINOIS

CITY           SKY/WX    TMP DP  RH WIND       PRES   REMARKS
MOLINE         CLOUDY    27  22  81 NE8       30.37R WCI  19
STERLING*      MOSUNNY   27  19  74 NE9       30.37R WCI  17
$$

ILZ003-004-008-010-011-017-018-291600-
NORTH CENTRAL ILLINOIS

CITY           SKY/WX    TMP DP  RH WIND       PRES   REMARKS
ROCKFORD       CLOUDY    23  17  78 NE13      30.40R WCI  11
$$

ILZ005-006-012>014-019>023-291600-
NORTHEAST ILLINOIS

CITY           SKY/WX    TMP DP  RH WIND       PRES   REMARKS
CHICAGO-OHARE  PTSUNNY   26  19  74 N12       30.35R WCI  16
CHICAGO-MIDWAY PTSUNNY   32  24  72 N7        30.34R WCI  26
AURORA         CLOUDY    26  20  77 NE12      30.35R HAZE    WCI  16
WAUKEGAN       PTSUNNY   22  15  75 N9        30.37R WCI  12
DUPAGE AIRPORT CLOUDY    26  20  77 N10       30.35R WCI  16
WHEELING       PTSUNNY   26  19  74 N10       30.38R WCI  16
NORTHERLY ISL    N/A     31  23  72 N16         N/A  WCI  20
$$

LMZ740>746-291600-
SOUTHERN LAKE MICHIGAN

STATION/POSITION SKY/WX   TEMP    WIND        PRES    VSBY  WAVE
                          AIR SEA DIR/SP/G                  HT/PER
                          (F)     (DEG/KT/KT) (MB)    (MI)  (FT/S)
WAUKEGAN HARBOR            23     340/  9/ 13   N/A
HARRISON CRIB              31      10/ 16/ 18   N/A
BURNHAM HARBOR             31      10/ 12/ 15   N/A
CALUMET HARBOR             32      10/ 11/ 16 1025.8R
MICHIGAN CITY              32      10/ 18/ 21   N/A
$$

ILZ025>027-034>036-040-047-049-050-058-095>099-291600-
WEST-CENTRAL ILLINOIS

CITY           SKY/WX    TMP DP  RH WIND       PRES   REMARKS
QUINCY         MOSUNNY   28  24  85 E5        30.33R WCI  23
$$

ILZ028>032-037-038-041>044-048-051>054-059>061-291600-
CENTRAL ILLINOIS

CITY           SKY/WX    TMP DP  RH WIND       PRES   REMARKS
DECATUR        SUNNY     27  22  81 E6        30.33R WCI  20
PEORIA         SUNNY     28  21  75 NE8       30.35R WCI  20
LINCOLN*       SUNNY     27  24  89 CALM      30.35R
SPRINGFIELD    SUNNY     28  23  81 E3        30.34R
TAYLORVILLE    NOT AVBL
$$

ILZ033-039-045-046-055>057-062-063-291600-
EAST-CENTRAL ILLINOIS

CITY           SKY/WX    TMP DP  RH WIND       PRES   REMARKS
CHAMPAIGN      SUNNY     29  21  72 NE7       30.32R WCI  22
MATTOON        SUNNY     26  22  84 E7        30.31R WCI  18
$$

ILZ079-100>102-291600-
SOUTHWEST ILLINOIS

CITY           SKY/WX    TMP DP  RH WIND       PRES   REMARKS
BELLEVILLE     MOSUNNY   25  25  99 N3        30.32R
CAHOKIA*       SUNNY     25  23  92 CALM      30.33R FOG
$$

ILZ064>066-069>071-074>076-080>082-084>086-088>090-092>094-291600-
SOUTH-CENTRAL ILLINOIS

CITY           SKY/WX    TMP DP  RH WIND       PRES   REMARKS
CARBONDALE     MOSUNNY   27  23  85 N3        30.31R
MARION         MOSUNNY   28  25  86 N6        30.31R WCI  22
MT. VERNON     MOSUNNY   28  25  86 NE7       30.31R WCI  21
$$

ILZ067-068-072-073-078-083-087-091-291600-
SOUTHEAST ILLINOIS

CITY           SKY/WX    TMP DP  RH WIND       PRES   REMARKS
LAWRENCEVILLE  SUNNY     28  25  88 N9        30.32R FOG     WCI  19
$$

ABBREVIATIONS USED IN REMARKS
   TC - TEMPERATURE IN CELSIUS
  WCI - WIND CHILL INDEX
   HX - HEAT INDEX
  VSB - VISIBILITY
$$



USA.gov is the U.S. government's official web portal to all federal, state and local government web resources and services.